Mount Holly, NJ

10:11 AM EDT on May 23, 2017 (GMT -0400)
South Jersey Regional

Weather History for KVAY - January, 2013

Change the Weather History Date:

Tuesday, January 22, 2013

  Actual Average (KPNE) Record (KPNE)
Temperature  
Mean Temperature 20 °F -  
Max Temperature 25 °F 34 °F 50 °F (1997)
Min Temperature 14 °F 21 °F 3 °F (2014)
Degree Days  
Heating Degree Days 45    
Moisture  
Dew Point -2 °F    
Average Humidity 41    
Maximum Humidity 53    
Minimum Humidity 32    
Precipitation  
Precipitation 0.00 in - - ()
Sea Level Pressure  
Sea Level Pressure 30.11 in    
Wind  
Wind Speed 12 mph (WNW)    
Max Wind Speed 20 mph    
Max Gust Speed 28 mph    
Visibility 10 miles    
Events      
Averages and records for this station are not official NWS values.
T = Trace of Precipitation, MM = Missing Value Source: NWS Daily Summary

Daily Weather History Graph

Daily Weather History Graph

Search for Another Location

Airport or City:

Trip Planner

Search our weather history database for the weather conditions in past years. The results will help you decide how hot, cold, wet, or windy it might be!

Date:

Astronomy

Jan. 22, 2013 Rise Set
Actual Time 7:15 AM EST 5:07 PM EST
Civil Twilight 6:46 AM EST 5:36 PM EST
Nautical Twilight 6:13 AM EST 6:09 PM EST
Astronomical Twilight 5:41 AM EST 6:41 PM EST
Moon 1:28 PM EST (1/22) 3:34 AM EST (1/22)
Length of Visible Light 10h 50m
Length of Day
9h 51m
Waxing Gibbous, 82% of the Moon is Illuminated
Jan 22
Waxing Gibbous
Jan 26
Full
Feb 3
Last Quarter
Feb 10
New
Feb 17
First Quarter

Hourly Weather History & Observations

Time (EST) Temp. Windchill Dew Point Humidity Pressure Visibility Wind Dir Wind Speed Gust Speed Precip Events Conditions
12:54 AM 25.0 °F 14.8 °F 8.1 °F 49% 29.89 in 10.0 mi WNW 10.4 mph 18.4 mph 0.00 in   Clear
1:54 AM 24.1 °F 14.4 °F 9.0 °F 53% 29.92 in 10.0 mi WNW 9.2 mph 19.6 mph N/A   Clear
2:54 AM 23.0 °F 13.9 °F 8.1 °F 53% 29.94 in 10.0 mi WNW 8.1 mph 19.6 mph N/A   Partly Cloudy
3:54 AM 21.0 °F 8.1 °F 1.0 °F 42% 29.97 in 10.0 mi West 13.8 mph 24.2 mph N/A   Clear
4:54 AM 19.9 °F 6.2 °F 1.0 °F 44% 30.00 in 10.0 mi WNW 15.0 mph 25.3 mph N/A   Clear
5:54 AM 19.0 °F 5.0 °F -0.0 °F 43% 30.02 in 10.0 mi WNW 15.0 mph 21.9 mph N/A   Clear
6:54 AM 18.0 °F 6.1 °F -0.9 °F 44% 30.06 in 10.0 mi WNW 10.4 mph 23.0 mph N/A   Clear
7:54 AM 18.0 °F 2.6 °F -0.0 °F 45% 30.08 in 10.0 mi West 17.3 mph 26.5 mph N/A   Clear
8:54 AM 18.0 °F 4.2 °F -0.9 °F 44% 30.11 in 10.0 mi WNW 13.8 mph 24.2 mph N/A   Clear
9:54 AM 19.0 °F 8.2 °F -0.0 °F 43% 30.13 in 10.0 mi WNW 9.2 mph 23.0 mph N/A   Clear
10:54 AM 19.9 °F 6.2 °F -0.0 °F 42% 30.13 in 10.0 mi NW 15.0 mph 25.3 mph N/A   Clear
11:54 AM 19.0 °F 6.1 °F -2.9 °F 38% 30.12 in 10.0 mi West 12.7 mph 21.9 mph N/A   Scattered Clouds
12:54 PM 19.9 °F 4.3 °F -5.1 °F 33% 30.10 in 10.0 mi West 19.6 mph 27.6 mph N/A   Mostly Cloudy
1:54 PM 21.0 °F 8.1 °F -4.0 °F 33% 30.10 in 10.0 mi WNW 13.8 mph 24.2 mph N/A   Clear
2:54 PM 21.0 °F 9.9 °F -5.1 °F 32% 30.11 in 10.0 mi WNW 10.4 mph 19.6 mph N/A   Clear
3:54 PM 19.9 °F 8.6 °F -4.0 °F 35% 30.13 in 10.0 mi NW 10.4 mph 19.6 mph N/A   Clear
4:54 PM 19.0 °F 6.1 °F -4.0 °F 36% 30.15 in 10.0 mi WNW 12.7 mph 18.4 mph N/A   Scattered Clouds
5:54 PM 18.0 °F 8.7 °F -5.1 °F 36% 30.18 in 10.0 mi Variable 6.9 mph - N/A   Clear
6:54 PM 18.0 °F 5.4 °F -5.1 °F 36% 30.21 in 10.0 mi WNW 11.5 mph 19.6 mph N/A   Clear
7:54 PM 17.1 °F 3.6 °F -5.1 °F 37% 30.23 in 10.0 mi WNW 12.7 mph 19.6 mph N/A   Clear
8:54 PM 16.0 °F 1.7 °F -6.0 °F 38% 30.24 in 10.0 mi WNW 13.8 mph 21.9 mph N/A   Clear
9:54 PM 16.0 °F 5.3 °F -6.0 °F 38% 30.26 in 10.0 mi WNW 8.1 mph 19.6 mph N/A   Clear
10:54 PM 15.1 °F 4.2 °F -5.1 °F 41% 30.28 in 10.0 mi WNW 8.1 mph - N/A   Partly Cloudy
11:54 PM 14.0 °F 3.9 °F -6.0 °F 41% 30.27 in 10.0 mi WNW 6.9 mph 19.6 mph N/A   Clear